Wetbulb
45.41 42.05 38.66 40.80 43.07 41.66 39.78 38.28 38.03 41.52 43.76 42.31 42.59 42.90 45.00 47.51 46.80 47.32 48.48 49.16 49.29 50.04 53.04 53.83 54.01 54.07 54.21 54.61 54.14 52.84 52.26 51.59 50.19 48.26 46.95 47.10 46.78 46.83 47.56 48.48 49.12 50.09 50.00 49.66
41.87 38.84 42.04 42.01 41.91 41.57 40.79 38.97 38.74 41.86 43.52 41.87 41.47 41.33 44.72 46.05 46.65 48.17 48.10 49.05 49.83 50.97 51.48 52.30 52.58 52.76 52.40 53.32 53.07 52.01 51.61 51.02 49.96 50.25 49.52 49.33 48.38 47.31 48.27 48.20 48.34 48.73 49.09 49.56
38.19 40.61 43.36 42.41 41.05 39.36 39.36 38.11 38.41 38.77 41.67 42.60 40.35 40.62 43.41 45.38 46.97 47.96 48.05 49.70 50.55 50.87 50.93 52.01 51.68 51.66 51.83 52.12 51.78 51.98 51.39 51.04 50.44 50.19 48.15 45.44 46.71 45.92 46.00 46.37 47.10 47.19 48.27 49.01
40.28 43.14 42.34 40.98 39.74 40.79 36.36 41.72 41.11 39.77 38.18 35.46 42.27 34.99 42.22 44.44 45.70 45.36 47.09 48.22 49.35 50.67 51.30 51.61 52.23 51.32 51.27 51.40 52.42 52.30 51.51 51.08 50.20 49.61 47.16 46.39 47.30 46.43 47.29 47.60 47.20 47.27 47.71 48.01
40.21 41.51 41.60 40.49 41.57 42.01 40.84 42.78 40.92 40.38 38.31 37.44 39.17 36.70 42.01 44.39 43.39 45.50 48.20 48.77 47.88 49.48 50.71 50.88 51.32 52.55 52.46 53.10 52.30 51.41 51.03 50.50 50.01 47.61 48.79 47.86 48.47 49.32 47.08 46.33 46.45 47.19 47.22 47.62
41.55 44.00 43.94 42.99 44.09 43.65 44.59 42.36 40.59 38.23 37.98 32.58 38.70 37.49 39.01 42.08 42.69 44.69 46.84 47.79 48.27 48.60 48.64 49.00 50.74 51.85 52.63 53.14 52.78 51.24 50.04 49.42 49.40 47.72 48.38 47.88 48.15 46.49 45.46 45.89 46.19 46.19 46.42 46.42
37.50 39.13 43.02 44.50 41.21 42.63 42.43 37.98 31.78 31.09 30.77 31.57 37.76 36.96 40.22 43.61 45.94 45.52 45.61 46.27 45.87 48.13 48.84 48.46 47.80 49.21 50.93 52.02 51.54 50.22 49.40 48.53 48.60 47.29 47.74 47.86 48.43 47.55 47.06 46.00 46.39 45.04 44.98 44.97
32.41 33.53 40.26 44.00 42.69 40.77 39.53 38.96 33.35 27.06 29.24 32.78 37.81 33.74 39.72 44.24 44.76 44.33 44.86 45.21 46.57 47.72 48.90 49.21 49.53 49.85 49.45 50.32 51.18 49.82 48.56 48.14 47.93 47.14 47.41 47.97 48.31 47.46 47.86 46.81 46.60 45.80 45.90 46.17
36.86 34.32 43.45 44.97 44.79 42.80 39.00 36.49 40.23 34.33 36.99 32.20 35.78 39.51 43.65 46.21 43.14 42.00 42.25 43.12 43.64 45.84 47.38 48.29 49.28 49.86 50.12 48.81 49.60 48.84 48.14 47.82 47.32 46.54 47.30 47.20 47.16 47.31 46.56 46.37 46.51 46.64 46.30 45.99
40.19 32.19 41.23 43.11 44.34 43.10 41.12 41.69 33.48 35.05 27.13 25.86 32.89 35.03 36.39 41.61 38.00 40.55 41.02 41.85 42.17 45.03 46.97 47.67 48.80 49.53 50.24 48.55 48.56 47.97 47.97 46.89 46.51 46.73 47.34 46.81 46.52 46.85 47.00 46.46 45.13 45.38 45.76 46.31
39.90 37.58 35.27 38.18 36.42 35.21 35.67 33.35 34.36 35.48 33.60 27.09 26.00 31.79 37.51 37.92 39.72 38.46 39.13 41.83 42.33 44.50 45.62 46.95 48.24 49.46 49.43 47.48 46.41 46.47 46.51 46.11 46.05 46.16 46.75 46.62 45.90 46.15 46.20 45.58 45.70 45.69 45.80 45.69
38.20 36.57 28.29 30.18 36.73 38.67 37.22 35.35 32.74 25.31 23.80 26.42 23.77 22.65 38.47 40.04 38.65 38.72 40.38 41.77 43.26 44.35 45.67 47.17 47.77 47.84 48.75 48.68 45.98 44.87 45.78 45.54 45.91 45.90 45.83 45.94 45.69 45.73 45.60 45.56 45.50 45.73 44.97 45.15
36.14 30.37 23.26 25.79 30.35 34.00 31.39 32.78 32.40 31.64 29.49 22.85 19.71 23.18 37.04 37.38 37.64 39.94 39.96 42.21 43.45 44.41 45.37 45.33 45.42 46.90 47.87 48.95 47.86 45.57 44.84 45.33 45.78 45.09 44.92 45.38 44.80 44.82 45.29 45.33 45.27 44.91 44.96 44.53
39.48 32.93 28.55 21.66 25.61 31.20 27.38 29.70 31.39 30.00 23.43 24.33 25.00 27.09 32.44 35.05 36.03 37.94 39.91 41.63 42.60 44.01 44.44 44.61 45.09 46.56 47.24 48.83 48.88 46.70 45.14 45.04 45.18 44.60 44.49 44.37 44.29 44.99 45.32 45.41 44.78 44.33 44.48 43.93
34.64 27.61 29.45 29.77 30.52 30.58 29.61 28.99 29.39 27.48 28.31 24.11 27.07 28.08 32.39 34.96 35.16 36.90 38.87 40.43 41.26 42.45 43.51 44.12 44.70 46.10 47.01 48.09 48.99 48.77 44.99 44.49 44.71 43.65 43.65 44.23 44.74 45.15 45.12 44.59 44.21 44.04 43.65 43.67
34.27 26.84 29.39 26.17 29.57 29.35 26.97 29.22 29.80 29.89 30.11 30.10 30.63 30.07 36.77 36.82 38.16 37.65 38.37 39.45 39.87 41.55 43.14 43.95 44.82 45.56 46.60 47.51 47.85 48.43 48.36 44.66 44.14 43.34 43.16 44.56 44.04 44.05 43.94 43.77 43.48 43.09 42.83 42.70
30.20 28.25 26.08 21.47 27.54 26.86 22.93 28.23 29.08 29.58 31.11 30.78 26.89 32.20 36.61 35.37 36.48 37.72 38.56 39.61 40.05 41.70 42.79 43.33 43.84 45.13 46.14 47.58 47.85 47.84 48.03 47.71 43.84 43.21 43.32 43.65 43.26 43.04 42.90 43.13 42.85 42.51 42.18 42.00
29.78 28.28 27.52 22.64 23.99 16.07 28.38 33.86 32.87 30.59 32.73 34.00 33.82 35.52 36.34 36.20 37.64 39.55 40.89 39.84 40.94 41.00 41.71 42.60 43.57 44.80 46.91 48.60 48.14 48.71 48.39 45.37 44.66 42.73 43.01 43.23 42.83 42.65 42.64 42.37 42.15 42.41 42.11 41.46
32.82 29.18 24.42 20.52 19.90 24.97 27.80 31.01 30.52 28.87 28.88 35.07 33.48 34.72 35.94 37.34 37.66 37.30 40.52 41.45 40.88 41.64 42.32 43.03 44.40 45.62 47.64 48.16 48.38 48.18 45.41 43.84 44.25 42.35 42.90 43.02 42.92 42.47 41.98 41.65 41.74 41.88 41.26 41.11
30.40 30.94 26.83 24.29 18.48 15.63 27.39 32.82 35.72 35.25 24.38 34.85 35.16 34.77 35.15 36.27 30.21 33.66 39.60 40.46 40.93 42.04 42.71 42.91 44.27 44.92 47.00 47.75 48.35 44.30 41.91 42.26 43.65 43.27 43.10 43.47 43.13 42.74 41.68 42.26 41.61 41.48 41.49 40.63
25.31 25.06 21.85 22.44 20.95 24.11 31.02 33.62 37.51 22.96 26.26 35.61 36.30 36.17 35.97 33.70 36.05 38.48 40.21 40.08 41.35 41.97 42.25 43.26 43.44 44.83 47.31 48.01 45.78 41.39 39.54 39.60 44.09 44.73 43.89 43.36 43.26 42.63 42.83 42.25 41.67 40.69 41.03 40.49
23.79 21.60 20.96 22.58 19.13 16.53 34.00 34.24 27.74 33.05 36.34 36.84 37.20 37.34 36.35 37.30 38.08 38.66 39.47 39.68 40.41 40.68 41.43 42.75 43.47 46.35 47.51 46.97 43.44 39.23 38.06 40.77 45.29 44.23 43.47 42.50 42.42 42.02 41.64 41.08 40.50 40.69 40.35 39.95
23.24 27.93 25.22 26.19 25.27 33.06 35.60 35.12 37.31 37.85 36.65 37.21 37.25 38.07 38.13 37.33 37.40 38.48 38.45 39.32 39.84 40.54 41.54 43.18 44.43 46.96 46.92 45.71 41.34 37.50 38.40 42.80 44.25 43.43 41.85 41.15 41.59 41.59 40.75 40.02 39.18 39.03 40.04 39.52
28.57 32.29 28.69 28.05 31.50 32.98 34.91 37.03 38.08 38.28 37.63 38.68 39.00 38.38 38.42 37.14 37.89 37.92 38.56 39.25 39.68 40.68 41.02 42.76 44.53 45.82 44.96 42.92 39.92 38.51 38.97 41.58 41.91 40.92 39.89 39.45 39.92 38.77 39.84 40.04 40.03 38.92 38.94 38.90
30.62 32.12 30.04 29.34 32.04 33.95 35.32 36.89 37.91 38.27 38.62 37.97 38.32 38.24 37.91 38.04 38.02 38.44 38.45 38.80 39.50 40.10 40.78 42.42 44.14 45.39 44.15 41.25 39.43 39.09 38.80 39.63 39.47 38.96 38.46 38.24 39.31 38.81 38.78 39.41 39.52 39.82 40.41 40.56
32.53 30.54 28.97 28.11 34.17 34.50 35.00 37.77 38.83 36.98 36.26 37.06 36.66 36.92 38.65 39.09 37.69 38.11 37.96 38.94 38.98 38.87 40.54 41.49 43.90 45.41 42.74 40.52 39.81 40.19 39.44 38.81 37.84 37.47 38.11 38.91 38.23 38.71 38.47 38.72 39.18 41.47 41.31 42.16
MSLP
1017.79 1018.00 1017.80 1017.62 1017.71 1017.79 1017.81 1017.61 1017.10 1015.77 1015.06 1014.96 1013.67 1012.16 1011.67 1010.73 1010.98 1010.72 1010.26 1009.76 1009.35 1008.89 1008.08 1008.79 1009.34 1010.06 1010.86 1011.48 1012.13 1012.75 1013.53 1014.22 1015.29 1016.20 1016.93 1017.60 1017.58 1018.17 1018.63 1018.93 1019.15 1019.46 1019.96 1020.40
1018.47 1017.80 1017.03 1017.53 1017.74 1017.83 1017.69 1017.55 1016.76 1015.60 1014.66 1014.66 1013.15 1010.17 1010.30 1009.89 1008.57 1008.59 1008.62 1008.19 1007.73 1007.35 1007.45 1007.73 1008.21 1008.90 1009.41 1009.69 1010.46 1011.37 1012.13 1013.20 1014.00 1014.65 1015.31 1016.09 1016.73 1017.55 1017.88 1018.55 1018.86 1019.20 1019.63 1020.01
1018.45 1017.53 1017.38 1017.58 1017.65 1017.69 1017.66 1017.46 1016.47 1015.90 1014.86 1013.79 1012.73 1008.34 1007.77 1007.63 1007.65 1007.46 1007.67 1007.09 1006.68 1006.66 1006.53 1006.65 1007.38 1007.81 1008.51 1008.97 1009.42 1009.89 1010.48 1011.32 1012.40 1013.60 1014.96 1016.04 1016.80 1017.39 1017.90 1018.15 1018.42 1018.85 1019.22 1019.63
1018.33 1017.56 1017.45 1017.51 1017.41 1017.31 1017.23 1016.00 1015.95 1015.86 1016.01 1014.58 1013.36 1009.05 1007.22 1007.23 1006.68 1006.90 1006.68 1006.18 1005.96 1006.15 1006.18 1006.19 1006.51 1006.98 1007.17 1007.19 1007.59 1008.40 1009.05 1009.92 1011.14 1012.29 1013.33 1013.93 1014.24 1015.21 1015.74 1016.50 1017.54 1018.24 1018.72 1019.11
1017.62 1017.34 1017.22 1017.21 1016.54 1016.59 1016.15 1015.96 1015.99 1015.96 1015.78 1015.02 1013.40 1012.83 1003.98 1005.79 1006.47 1006.26 1005.72 1005.95 1006.09 1006.01 1005.76 1005.77 1005.96 1005.96 1005.81 1006.17 1006.70 1007.18 1008.05 1008.97 1009.86 1010.84 1011.51 1012.44 1013.33 1014.00 1015.11 1016.18 1017.00 1017.66 1018.24 1018.63
1017.75 1017.32 1016.90 1016.24 1015.94 1015.98 1015.85 1016.01 1016.09 1016.24 1015.85 1014.24 1012.24 1011.90 1004.44 1005.97 1006.07 1006.38 1006.06 1005.59 1005.80 1006.81 1007.20 1007.16 1006.63 1006.31 1006.03 1006.09 1006.18 1006.56 1007.11 1007.37 1008.27 1009.25 1010.05 1010.83 1011.88 1013.02 1014.27 1015.30 1016.16 1016.94 1017.66 1018.23
1018.57 1017.25 1016.60 1016.19 1016.10 1016.01 1016.17 1016.55 1016.61 1016.24 1015.81 1013.47 1012.00 1010.93 1006.27 1006.55 1006.41 1007.10 1007.18 1007.50 1007.71 1007.32 1007.08 1007.06 1006.81 1006.52 1006.14 1005.82 1005.69 1005.69 1006.15 1006.59 1007.26 1008.08 1008.87 1009.74 1010.67 1011.79 1012.64 1013.80 1014.80 1016.01 1016.87 1017.56
1019.81 1018.01 1017.13 1016.95 1017.13 1016.88 1016.56 1016.83 1017.22 1016.31 1014.88 1013.45 1012.61 1010.02 1007.17 1007.15 1007.68 1008.46 1009.13 1009.44 1009.12 1008.60 1008.17 1007.87 1007.45 1006.66 1006.10 1005.51 1005.19 1005.39 1005.57 1005.89 1006.82 1007.66 1008.05 1008.84 1009.86 1010.83 1011.69 1012.72 1013.80 1014.83 1015.58 1016.26
1021.22 1019.33 1017.63 1016.99 1017.56 1017.45 1017.31 1017.56 1017.75 1017.04 1015.21 1014.06 1011.45 1009.43 1008.15 1007.90 1008.82 1009.64 1009.51 1009.30 1009.26 1009.21 1008.82 1008.31 1007.41 1006.70 1006.01 1004.96 1004.75 1004.88 1005.18 1005.69 1005.70 1006.25 1007.35 1008.16 1009.04 1009.93 1010.86 1012.01 1013.02 1013.93 1014.90 1015.76
1022.65 1020.68 1018.78 1018.62 1018.21 1018.03 1018.57 1019.02 1018.32 1018.29 1016.58 1014.00 1011.75 1010.57 1009.21 1009.49 1010.37 1010.30 1010.00 1009.76 1009.54 1009.23 1008.87 1008.56 1007.71 1006.99 1006.25 1005.40 1004.68 1004.81 1005.05 1005.24 1005.78 1005.97 1006.29 1006.92 1007.96 1009.08 1010.09 1011.20 1012.23 1013.20 1014.13 1015.05
1023.52 1022.75 1020.27 1020.02 1019.75 1019.50 1019.43 1019.77 1019.92 1019.40 1018.61 1016.74 1014.28 1011.70 1011.62 1011.64 1011.86 1011.56 1011.00 1010.27 1010.19 1009.97 1009.70 1009.19 1008.44 1007.66 1006.80 1005.92 1004.94 1004.67 1004.81 1005.03 1005.41 1006.25 1006.44 1006.67 1007.32 1008.41 1009.49 1010.37 1011.39 1012.24 1013.22 1014.19
1024.68 1023.70 1021.61 1020.86 1020.58 1020.07 1020.70 1021.37 1021.83 1022.14 1020.51 1019.73 1018.64 1015.93 1014.56 1013.41 1012.65 1012.30 1011.04 1010.76 1009.92 1009.76 1009.55 1009.11 1008.25 1007.67 1007.18 1005.76 1005.15 1004.91 1004.78 1004.75 1004.94 1005.32 1006.09 1006.61 1006.99 1007.60 1008.38 1009.37 1010.46 1011.50 1012.42 1013.44
1025.47 1024.72 1023.15 1020.83 1021.14 1020.80 1021.85 1022.48 1022.87 1022.67 1021.92 1020.08 1019.14 1016.00 1015.31 1013.32 1013.41 1013.37 1012.49 1011.43 1010.24 1008.99 1007.86 1008.71 1008.41 1007.69 1007.40 1005.99 1005.35 1004.95 1004.76 1004.65 1004.69 1005.06 1005.40 1006.15 1006.81 1007.06 1007.46 1008.46 1009.71 1010.91 1011.73 1012.75
1025.51 1025.23 1024.85 1023.85 1023.03 1023.01 1022.59 1022.65 1022.83 1022.47 1021.40 1020.10 1019.16 1017.05 1016.19 1015.01 1014.14 1013.92 1013.30 1012.49 1011.21 1010.37 1009.82 1008.89 1007.65 1006.56 1006.02 1006.12 1005.47 1005.01 1004.58 1004.53 1004.57 1004.69 1004.94 1005.16 1005.93 1006.44 1007.04 1007.82 1009.00 1010.01 1011.04 1011.98
1026.30 1025.59 1025.13 1024.75 1024.48 1023.89 1022.98 1022.61 1021.57 1021.23 1020.54 1019.84 1017.90 1017.44 1016.30 1015.82 1015.63 1014.10 1013.23 1012.43 1011.24 1009.99 1009.35 1008.96 1007.85 1007.47 1007.15 1006.75 1005.34 1004.83 1004.72 1004.39 1004.10 1004.07 1004.44 1004.69 1005.34 1006.09 1006.73 1007.44 1008.43 1009.45 1010.48 1011.33
1026.62 1025.75 1025.46 1024.79 1024.43 1023.32 1022.61 1021.35 1020.55 1020.06 1019.20 1018.22 1017.41 1016.87 1016.57 1016.07 1014.85 1013.76 1013.04 1011.85 1010.94 1010.03 1008.94 1008.25 1007.20 1006.52 1005.63 1005.63 1005.26 1004.41 1004.13 1003.96 1003.31 1003.23 1003.48 1004.26 1005.04 1005.55 1006.05 1006.86 1007.80 1008.81 1009.92 1010.96
1027.00 1026.20 1025.60 1024.19 1023.83 1023.09 1021.83 1019.57 1019.25 1018.73 1018.14 1017.45 1017.06 1016.48 1016.51 1015.53 1014.16 1013.17 1012.21 1011.43 1010.36 1009.51 1008.41 1007.60 1006.73 1006.22 1005.13 1004.82 1004.37 1004.22 1003.19 1002.40 1002.55 1002.54 1002.76 1003.26 1004.24 1004.88 1005.38 1006.23 1007.27 1008.09 1009.00 1010.30
1026.20 1025.97 1025.78 1024.38 1023.71 1022.44 1020.02 1018.57 1018.50 1018.04 1017.17 1016.94 1016.50 1016.48 1016.33 1015.78 1013.69 1012.93 1011.94 1010.76 1010.07 1009.21 1008.07 1007.05 1006.19 1005.29 1004.62 1004.33 1003.28 1003.31 1002.72 1001.58 1001.47 1001.83 1001.89 1002.36 1003.00 1004.00 1004.85 1005.30 1006.36 1007.53 1008.45 1009.52
1025.35 1025.90 1025.58 1024.87 1023.38 1021.37 1019.57 1018.13 1017.90 1017.56 1015.99 1016.52 1016.68 1016.08 1015.12 1014.34 1013.60 1011.59 1011.34 1010.84 1010.17 1008.89 1007.80 1006.83 1005.89 1005.07 1004.54 1003.88 1003.33 1002.67 1001.61 1000.97 1000.57 1000.63 1000.77 1001.27 1001.83 1002.85 1003.94 1004.34 1005.29 1006.59 1007.69 1008.78
1024.92 1025.23 1025.35 1024.41 1023.43 1021.12 1017.62 1017.52 1017.50 1017.44 1016.00 1016.04 1016.00 1015.48 1014.77 1014.02 1013.36 1010.33 1010.80 1010.29 1009.30 1008.53 1007.44 1006.38 1005.30 1004.54 1004.02 1003.50 1002.76 1002.05 1000.98 1000.42 999.62 999.58 1000.08 1000.53 1001.09 1001.79 1002.93 1003.75 1004.71 1006.07 1007.34 1008.53
1024.89 1024.75 1024.58 1023.48 1022.40 1019.99 1017.95 1017.34 1017.18 1017.25 1016.01 1015.39 1015.61 1015.16 1014.35 1013.77 1013.27 1010.87 1010.71 1009.66 1008.80 1007.95 1006.80 1005.63 1004.51 1003.36 1002.81 1002.39 1001.71 1000.34 999.61 999.19 998.83 998.93 999.36 999.83 1000.29 1001.12 1002.32 1003.43 1004.37 1005.64 1006.96 1008.19
1024.68 1024.31 1023.60 1022.65 1021.61 1019.25 1017.14 1016.92 1017.64 1016.96 1015.59 1015.57 1014.83 1014.33 1013.80 1012.80 1011.81 1010.70 1010.01 1009.42 1008.38 1007.36 1006.15 1005.03 1003.86 1002.95 1002.47 1002.22 1001.34 999.78 998.59 998.14 997.50 997.57 998.20 999.10 999.89 1000.83 1001.93 1002.78 1004.04 1005.30 1006.57 1007.82
1023.57 1022.76 1022.16 1021.76 1019.39 1017.48 1016.79 1016.86 1016.36 1016.29 1015.85 1014.91 1014.58 1013.55 1013.20 1012.20 1011.08 1010.23 1009.30 1008.61 1007.86 1006.76 1005.81 1004.62 1003.48 1002.45 1001.67 1001.53 1000.85 999.79 998.26 997.11 996.15 996.66 997.46 998.59 999.66 1000.69 1001.64 1002.51 1003.70 1005.13 1006.26 1007.48
1022.16 1021.87 1021.45 1020.91 1017.11 1017.50 1016.69 1016.12 1015.99 1015.60 1015.28 1014.58 1013.88 1013.24 1012.34 1011.77 1010.52 1009.72 1008.84 1008.00 1007.13 1006.17 1005.21 1004.23 1003.20 1002.21 1001.24 1000.96 1000.17 999.33 997.47 996.12 995.90 996.73 997.74 998.62 999.39 1000.70 1001.65 1002.70 1003.59 1004.88 1006.14 1007.30
1021.35 1021.36 1019.97 1018.80 1017.69 1016.89 1016.41 1016.06 1015.88 1015.04 1014.59 1014.02 1013.08 1012.62 1011.86 1011.23 1009.98 1009.49 1008.34 1007.67 1006.73 1005.77 1004.95 1004.09 1003.10 1002.06 1001.49 1001.26 1000.13 998.51 997.47 997.28 997.10 997.75 998.14 999.05 998.84 1000.74 1001.84 1002.74 1003.74 1004.87 1006.05 1006.72
1020.02 1019.38 1019.18 1018.00 1017.59 1017.42 1016.31 1015.89 1015.43 1014.76 1013.87 1013.21 1012.64 1011.04 1010.65 1010.78 1009.75 1008.94 1007.89 1007.22 1006.46 1005.54 1004.71 1003.87 1002.93 1002.24 1001.60 1001.17 1000.61 999.31 998.43 998.02 997.85 997.88 998.47 998.89 999.24 1000.86 1001.91 1003.03 1004.58 1005.82 1006.33 1007.30
Wind_Speed
3 1 6 10 6 4 3 5 10 16 12 9 18 23 20 22 10 15 17 18 17 20 22 16 18 19 19 19 19 21 20 20 14 10 10 8 9 9 8 8 11 11 10 10
4 9 6 3 4 6 7 9 14 12 11 7 12 26 20 18 25 20 20 20 21 20 16 15 17 17 21 22 22 22 22 20 18 12 11 7 9 7 8 8 9 10 11 11
6 1 6 4 3 5 4 8 8 14 12 8 11 21 10 8 15 16 16 21 20 18 20 18 15 19 17 20 22 22 25 24 20 18 11 4 7 4 6 9 9 10 12 11
6 4 2 3 7 7 7 12 15 11 5 7 5 21 6 11 16 5 12 16 17 16 17 16 15 17 21 23 21 23 23 23 21 21 17 17 12 11 10 10 9 10 12 12
7 2 3 4 7 5 8 1 4 3 5 7 6 7 18 5 9 12 12 11 11 15 15 16 15 17 20 18 19 20 22 22 23 22 21 17 15 11 8 8 13 12 11 12
8 4 5 5 2 6 2 2 2 2 2 9 9 11 30 6 3 5 7 7 9 10 14 13 14 13 15 13 16 17 22 23 24 24 24 24 21 16 11 11 11 10 9 9
5 5 3 2 2 4 2 3 5 4 4 8 3 10 20 8 18 7 10 20 22 22 20 18 17 16 16 13 16 16 20 22 23 24 23 23 20 19 18 16 12 13 10 9
5 6 2 2 3 6 6 4 2 8 8 14 4 14 12 2 7 13 13 15 16 19 18 20 19 17 17 16 16 17 19 20 21 21 23 20 20 13 12 15 12 11 11 11
6 6 7 19 6 5 3 1 4 9 17 15 13 18 14 17 9 17 19 20 21 18 17 18 22 21 20 15 14 17 17 18 21 22 20 20 18 18 15 16 14 11 13 11
2 14 9 3 6 6 5 5 7 3 17 23 18 22 17 16 18 23 28 28 24 19 20 19 20 21 21 16 10 12 15 19 19 20 20 18 19 18 16 14 16 15 14 13
3 5 8 13 4 9 10 10 10 10 11 16 21 11 2 19 18 24 32 27 22 19 19 19 18 18 18 16 9 10 13 16 16 17 17 17 17 18 17 16 15 15 15 15
5 6 12 20 19 18 11 4 7 5 13 16 14 21 21 19 30 34 29 25 26 21 21 19 17 14 19 18 13 10 12 14 15 16 17 17 17 18 18 17 17 17 16 15
5 3 12 7 2 2 9 17 17 16 9 17 16 14 23 32 27 22 24 27 22 25 27 18 17 14 17 19 17 13 12 14 14 16 17 16 17 18 19 19 18 17 16 16
10 5 12 13 17 16 18 19 18 18 13 17 20 29 28 30 29 19 18 19 20 18 19 21 21 19 18 17 16 16 13 13 13 15 16 17 18 17 17 17 17 18 17 16
2 6 14 16 18 19 22 22 25 21 21 19 25 25 26 20 22 22 16 19 18 19 19 19 20 17 15 16 17 13 13 13 14 15 16 16 16 16 17 17 17 17 16 15
3 15 15 19 20 20 19 24 22 21 20 18 18 19 9 13 20 19 21 19 20 21 19 19 22 24 19 17 16 16 13 13 13 15 17 15 15 16 17 17 17 17 15 15
9 9 8 13 16 12 12 15 10 20 20 18 16 18 10 19 23 21 20 20 19 20 21 22 23 21 19 17 16 18 17 13 13 16 16 16 17 17 18 17 17 17 16 16
12 8 6 7 4 7 8 15 19 16 16 15 17 7 14 17 25 20 17 18 15 20 23 23 22 21 18 17 18 19 17 15 12 15 16 17 18 18 17 18 18 17 15 16
16 4 4 3 4 13 16 6 8 14 23 12 5 18 23 22 22 19 11 14 21 23 21 20 22 20 18 17 18 18 18 16 14 17 18 18 19 19 19 19 19 16 15 14
4 5 3 4 9 12 19 15 7 4 18 2 20 23 22 20 14 20 19 20 22 21 20 20 22 20 15 17 18 17 16 18 18 17 17 17 19 19 19 18 18 15 15 13
3 3 7 10 9 11 9 6 3 8 10 21 21 20 21 18 13 26 20 22 21 19 22 21 20 18 16 14 19 19 17 18 18 16 17 17 18 18 18 17 15 15 14 13
7 4 4 3 4 10 3 7 7 12 23 19 20 19 19 21 22 22 21 19 20 20 20 20 18 16 16 14 17 20 19 17 16 15 16 16 17 14 14 18 15 16 14 14
6 8 6 8 10 7 14 19 17 13 17 20 18 22 18 21 22 21 21 19 18 20 17 17 17 16 15 14 15 20 18 15 10 12 14 16 16 14 15 16 16 13 13 11
4 4 7 6 21 17 16 18 19 13 16 19 19 18 19 18 21 21 19 18 18 18 17 17 18 16 14 13 16 16 15 7 10 13 13 13 15 14 14 11 12 12 11 9
12 10 13 17 20 17 10 9 16 18 17 17 19 17 18 17 21 20 19 18 17 18 17 16 17 12 12 14 16 15 8 4 10 13 13 13 14 13 13 12 11 10 10 10
6 10 6 7 14 13 16 13 17 18 19 16 19 24 18 14 19 20 18 15 17 17 16 16 16 12 7 13 15 16 8 4 10 12 11 11 12 12 11 12 10 10 13 12
Wind_Direction
6 16 223 213 200 144 173 225 262 268 267 287 267 271 268 275 247 246 255 259 254 248 247 240 222 213 209 208 201 199 193 194 179 174 175 186 192 188 188 188 182 178 175 173
19 246 236 149 175 224 245 272 272 285 277 233 277 274 265 251 261 249 249 253 250 251 254 245 220 209 208 205 203 198 197 188 191 188 186 188 179 194 188 186 187 183 182 179
186 255 76 140 208 219 243 240 256 262 309 264 283 278 239 243 252 259 249 247 259 257 258 253 229 214 210 210 205 200 198 193 190 186 168 133 142 122 180 194 192 193 187 182
243 291 198 227 257 205 257 232 250 267 296 280 0 295 255 257 257 250 255 244 245 265 260 257 244 219 211 213 209 206 201 193 190 181 180 181 187 181 197 188 184 187 189 185
261 267 218 224 230 156 244 250 224 230 226 308 218 250 284 359 294 277 269 280 256 253 264 267 254 237 228 218 209 205 200 196 191 187 188 188 192 190 171 174 178 187 187 189
258 302 253 246 277 196 352 353 32 58 163 252 219 200 278 284 151 328 291 287 283 339 335 310 295 283 257 230 214 203 201 201 190 189 189 189 189 179 167 174 180 183 183 183
319 262 290 287 341 15 118 32 321 276 194 256 327 211 251 286 319 337 335 0 359 1 4 358 344 326 295 245 220 205 202 204 196 192 190 190 188 183 179 175 177 171 177 187
349 330 350 40 55 258 281 170 205 281 284 291 268 251 254 258 334 40 31 357 351 352 349 345 340 336 317 285 234 212 207 201 197 195 194 190 186 184 182 176 172 179 181 184
330 262 315 312 358 323 4 11 333 286 282 271 261 263 280 276 3 4 353 351 344 340 337 338 334 337 328 314 254 218 209 208 197 193 190 192 185 182 178 174 176 175 179 179
331 295 245 27 339 357 55 329 320 269 282 275 268 274 276 314 351 345 339 332 339 338 338 337 338 329 327 322 269 227 219 212 204 197 194 190 186 182 176 171 175 176 177 175
316 227 276 337 330 314 306 291 291 303 269 279 285 274 114 329 318 320 320 324 330 326 330 327 323 317 325 323 300 235 220 214 207 208 199 190 184 181 177 177 176 176 172 176
325 287 288 292 276 271 269 29 356 324 306 287 267 268 281 295 315 313 310 315 318 312 322 318 318 316 325 333 317 267 236 221 208 198 198 197 184 180 178 177 177 176 176 177
331 302 312 292 60 56 354 318 310 300 274 273 284 294 311 303 303 307 322 317 319 324 327 329 326 330 324 329 330 295 251 232 211 199 194 195 191 185 181 177 176 177 174 178
313 241 228 259 284 314 303 298 294 272 277 276 273 285 297 299 308 334 323 318 316 313 317 317 323 333 337 325 326 320 284 241 215 200 198 191 193 188 182 175 175 175 178 175
249 258 276 278 288 289 285 294 282 286 273 265 277 281 286 314 311 300 297 300 306 305 309 308 314 319 322 312 321 322 296 254 216 202 200 201 193 187 182 176 174 174 176 176
241 274 291 289 283 278 290 276 278 271 277 285 280 292 326 289 287 295 303 315 313 309 308 307 313 313 320 320 317 313 307 268 226 210 204 197 192 188 183 176 173 170 171 175
261 268 275 278 281 297 275 263 274 300 294 286 299 303 318 314 304 311 310 300 315 316 317 304 309 304 307 308 315 299 300 300 246 224 207 194 189 189 183 174 173 172 170 170
253 250 261 282 305 258 257 288 295 282 283 301 298 311 301 306 303 311 304 295 302 316 310 305 303 303 306 303 313 297 291 295 260 230 211 196 187 189 183 173 174 171 168 172
210 193 253 251 264 285 279 274 317 319 297 305 340 319 320 320 314 308 306 320 308 299 300 299 297 301 299 301 299 296 296 289 262 228 215 199 187 184 183 177 172 168 165 166
118 200 215 284 279 283 275 302 334 355 289 29 343 313 307 314 310 298 320 313 306 303 298 299 299 298 296 290 298 294 288 278 257 230 216 200 191 183 183 175 166 164 163 166
290 277 240 271 266 265 262 267 251 290 294 321 311 302 301 298 286 293 305 303 303 300 301 303 300 299 301 299 300 297 289 275 264 222 210 197 187 182 177 166 158 158 158 156
256 265 255 244 249 275 198 317 334 287 296 299 297 299 297 293 296 296 303 299 301 301 303 304 298 295 303 301 301 302 291 281 249 205 197 185 178 173 168 161 154 155 152 155
249 202 235 201 236 258 274 299 296 290 294 301 300 301 297 296 296 299 304 305 299 301 301 304 302 295 305 315 307 296 288 276 193 190 175 172 167 168 163 153 148 146 151 156
250 221 254 296 266 263 287 293 294 297 296 297 293 296 299 296 297 303 305 307 306 304 307 309 308 301 315 328 321 299 302 224 169 171 168 161 155 150 152 147 146 143 149 154
273 291 248 257 275 294 273 288 294 303 299 299 295 292 295 297 297 302 302 305 304 304 309 306 305 302 328 345 331 338 327 224 164 161 154 155 137 142 138 134 140 145 156 160
226 248 240 273 292 285 286 302 294 296 294 298 304 302 296 288 298 305 302 300 299 304 307 305 311 302 330 16 345 358 355 138 148 143 145 143 127 133 125 120 110 115 137 150